Regional Weather Roundup
Issued by NWS Sioux Falls, SD

Home | Current Version | Previous Version | Text Only | Print | Product List | Glossary Off
Versions: 1 2 3 4 5 6 7 8 9 10 11 12 13 14 15 16 17 18 19 20 21 22 23 24 25 26 27 28 29 30 31 32 33 34 35 36 37 38 39 40 41 42 43 44 45 46 47 48 49 50

000
ASUS43 KFSD 210302
RWRFSD

WEATHER ROUNDUP FOR SE SOUTH DAKOTA/SW MINNESOTA/NW IOWA
NATIONAL WEATHER SERVICE SIOUX FALLS SD
900 PM CST THU NOV 20 2014

NOTE: "FAIR" INDICATES FEW OR NO CLOUDS BELOW 12,000 FEET WITH NO
SIGNIFICANT WEATHER AND OR OBSTRUCTIONS TO VISIBILITY.


SDZ038>040-050-052>070-210400-
SOUTHEAST SOUTH DAKOTA

CITY           SKY/WX    TMP DP  RH WIND       PRES   REMARKS
CHAMBERLAIN    PTCLDY    15  12  89 SE9       30.07F WCI   3
HURON          PTCLDY    10   4  76 SE9       30.13F WCI  -3
MADISON        FAIR       5   5 100 SE6       30.13F WCI  -6
MITCHELL       CLOUDY    16  11  80 SE6       30.15F WCI   7
SIOUX FALLS    PTCLDY     5   2  87 CALM      30.18S
WINNER         FAIR      24  17  74 SE16      30.03F WCI  11
YANKTON        MOCLDY    18  10  73 E6        30.19S WCI   9
$$

MNZ071-072-080-081-089-090-097-098-210400-
SOUTHWEST MINNESOTA

CITY           SKY/WX    TMP DP  RH WIND       PRES   REMARKS
FAIRMONT       PTCLDY     3  -2  78 CALM      30.21F
JACKSON        PTCLDY     5   1  85 CALM      30.20S
LUVERNE        PTCLDY     3   0  85 CALM      30.20S
MARSHALL       CLEAR      5   0  78 S8        30.19R WCI  -8
MONTEVIDEO     PTCLDY     3   0  85 CALM      30.21S
PIPESTONE      PTCLDY    10   7  85 S6        30.15S WCI   1
REDWOOD FALLS  PTCLDY     3  -1  83 S3        30.22S
TRACY          PTCLDY     8   4  84 SW6       30.20R WCI  -2
WINDOM         PTCLDY     0  -2  92 CALM      30.20S
WORTHINGTON    PTCLDY     7   5  92 S3        30.18S
$$

IAZ001>003-012>014-020>022-031-032-NEZ013-014-SDZ071-210400-
NORTHWEST IOWA

CITY           SKY/WX    TMP DP  RH WIND       PRES   REMARKS
CHEROKEE       CLEAR      7   5  92 CALM      30.24R
DENISON        PTCLDY    10   7  85 CALM      30.22S
ESTHERVILLE    PTCLDY     1  -2  87 SW5       30.22R WCI  -9
LE MARS        CLEAR      9   5  85 CALM      30.23S
ORANGE CITY    PTCLDY    12   9  85 SE3       30.20S
SHELDON        PTCLDY     3  -2  78 CALM      30.20S
SIOUX CITY     PTCLDY    14   8  77 E6        30.23S WCI   5
SPENCER        PTCLDY     3  -1  83 CALM      30.22R
STORM LAKE     PTCLDY    12   9  85 SE5       30.22S WCI   4
$$

ABBREVIATIONS USED IN REMARKS
   TC - TEMPERATURE IN CELSIUS
  WCI - WIND CHILL INDEX
   HX - HEAT INDEX
  VSB - VISIBILITY




USA.gov is the U.S. government's official web portal to all federal, state and local government web resources and services.